K1FFK-1 Weather Reports


time (UTC)temp
F
wind
direction
speed
knots
gust
knots
rain 1hr
in
rain 24hr
in
rain mn
in
humidity
%
barometer
mb
20260504232134 52 177 3.5 3.5 0.00 0.00 0.00 58 1012.6
20260504231133 53 180 2.6 2.6 0.00 0.00 0.00 55 1012.6
20260504230133 53 202 2.6 2.6 0.00 0.00 0.00 54 1012.4
20260504225134 55 180 3.5 3.5 0.00 0.00 0.00 51 1012.4
20260504224134 54 232 1.7 1.7 0.00 0.00 0.00 52 1012.2
20260504223134 55 201 1.7 1.7 0.00 0.00 0.00 52 1012.5
20260504222134 55 194 1.7 1.7 0.00 0.00 0.00 50 1012.3
20260504221134 55 181 1.7 1.7 0.00 0.00 0.00 50 1012.4
20260504220134 56 223 1.7 1.7 0.00 0.00 0.00 50 1012.5
20260504215134 56 196 2.6 2.6 0.00 0.00 0.00 48 1012.5
20260504214134 55 222 2.6 2.6 0.00 0.00 0.00 52 1012.2
20260504213134 56 261 3.5 3.5 0.00 0.00 0.00 50 1012.5
20260504212133 55 234 2.6 2.6 0.00 0.00 0.00 52 1012.5
20260504211134 55 196 2.6 2.6 0.00 0.00 0.00 52 1012.5
20260504210134 54 227 2.6 2.6 0.00 0.00 0.00 53 1012.4
20260504205133 55 220 2.6 2.6 0.00 0.00 0.00 49 1012.5
20260504204133 54 303 3.5 3.5 0.00 0.00 0.00 51 1012.3
20260504203134 54 253 3.5 3.5 0.00 0.00 0.00 52 1012.5
20260504202134 56 306 1.7 1.7 0.00 0.00 0.00 50 1012.5
20260504201133 56 288 2.6 2.6 0.00 0.00 0.00 50 1012.6
20260504200134 55 210 2.6 2.6 0.00 0.00 0.00 51 1012.5
20260504195133 56 278 2.6 2.6 0.00 0.00 0.00 48 1012.5
20260504194133 55 251 1.7 1.7 0.00 0.00 0.00 52 1012.6
20260504193133 54 286 2.6 2.6 0.00 0.00 0.00 51 1012.7
20260504192133 54 213 1.7 1.7 0.00 0.00 0.00 53 1012.7
20260504191134 53 203 2.6 2.6 0.00 0.00 0.00 55 1012.7
20260504190133 53 209 2.6 2.6 0.00 0.00 0.00 55 1012.7
20260504185133 51 237 2.6 2.6 0.00 0.00 0.00 56 1012.6
20260504184134 51 243 0.0 0.0 0.00 0.00 0.00 57 1012.7
20260504183133 51 212 1.7 1.7 0.00 0.00 0.00 57 1012.7
20260504182134 51 298 1.7 1.7 0.00 0.00 0.00 55 1012.7
20260504181134 51 181 2.6 2.6 0.00 0.00 0.00 56 1012.8
20260504180134 51 296 1.7 1.7 0.00 0.00 0.00 56 1012.9
20260504175133 52 239 2.6 2.6 0.00 0.00 0.00 55 1012.9
20260504174133 52 291 1.7 1.7 0.00 0.00 0.00 55 1013.0
20260504173133 50 270 2.6 2.6 0.00 0.00 0.00 57 1013.1
20260504172133 50 334 1.7 1.7 0.00 0.00 0.00 56 1013.0
20260504171134 51 296 1.7 1.7 0.00 0.00 0.00 55 1013.1
20260504170134 52 250 2.6 2.6 0.00 0.00 0.00 53 1012.7
20260504160133 52 191 4.3 4.3 0.00 0.00 0.00 53 1013.0
20260504151134 48 295 3.5 3.5 0.00 0.00 0.00 59 1013.2
20260504150134 48 201 3.5 3.5 0.00 0.00 0.00 59 1013.3
20260504141134 45 309 3.5 3.5 0.00 0.00 0.00 62 1013.2
20260504140134 44 300 4.3 4.3 0.00 0.00 0.00 63 1013.3
20260504130134 41 329 3.5 3.5 0.00 0.00 0.00 66 1013.1
20260504120134 39 285 3.5 3.5 0.00 0.00 0.00 70 1013.3
20260504110134 38 309 4.3 4.3 0.00 0.00 0.00 72 1012.7
20260504100135 37 292 6.1 6.1 0.00 0.00 0.00 72 1012.1
20260504090133 36 227 2.6 2.6 0.00 0.00 0.00 76 1012.0
20260504081133 37 299 4.3 4.3 0.00 0.00 0.00 75 1012.3
20260504080133 37 306 4.3 4.3 0.00 0.00 0.00 76 1012.3
20260504070133 36 330 6.1 6.1 0.00 0.00 0.00 78 1012.0
20260504060134 36 340 7.0 7.0 0.00 0.00 0.00 78 1012.1
20260504050133 35 327 7.0 7.0 0.00 0.00 0.00 75 1012.5
20260504045133 35 336 4.3 4.3 0.00 0.00 0.00 74 1012.6
20260504044133 35 326 6.1 6.1 0.00 0.00 0.00 75 1012.7
20260504043134 35 329 6.1 6.1 0.00 0.00 0.00 75 1012.6
20260504042134 35 329 5.2 5.2 0.00 0.00 0.00 74 1012.6
20260504041134 35 327 5.2 5.2 0.00 0.00 0.00 74 1012.5
20260504040134 35 330 6.1 6.1 0.00 0.00 0.00 74 1012.4
20260504035133 35 341 7.8 7.8 0.00 0.00 0.00 74 1012.3
20260504034134 35 334 7.0 7.0 0.00 0.00 0.00 74 1012.4
20260504033134 35 341 7.8 7.8 0.00 0.00 0.00 74 1012.2
20260504032133 35 336 7.0 7.0 0.00 0.00 0.00 73 1012.2
20260504031134 35 334 7.0 7.0 0.00 0.00 0.00 72 1012.1
20260504030134 35 330 6.1 6.1 0.00 0.00 0.00 71 1012.1
20260504025134 35 334 5.2 5.2 0.00 0.00 0.00 69 1012.2
20260504024134 35 334 6.1 6.1 0.00 0.00 0.00 68 1012.2
20260504023134 35 326 7.0 7.0 0.00 0.00 0.00 67 1012.2
20260504022133 35 326 9.6 9.6 0.00 0.00 0.00 66 1012.1
20260504021133 35 334 7.8 7.8 0.00 0.00 0.00 65 1012.2
20260504020134 35 334 7.0 7.0 0.00 0.00 0.00 64 1012.1
20260504015134 35 337 7.8 7.8 0.00 0.00 0.00 63 1012.1
20260504014133 36 337 6.1 6.1 0.00 0.00 0.00 63 1011.9
20260504013133 35 329 8.7 8.7 0.00 0.00 0.00 62 1011.7
20260504012134 35 322 7.8 7.8 0.00 0.00 0.00 62 1011.7
20260504011133 35 327 7.8 7.8 0.00 0.00 0.00 61 1011.6
20260504010133 36 330 7.8 7.8 0.00 0.00 0.00 59 1011.6
20260504005133 36 327 9.6 9.6 0.00 0.00 0.00 58 1011.2
20260504004133 36 327 10.4 10.4 0.00 0.00 0.00 56 1011.2
20260504003134 36 333 10.4 10.4 0.00 0.00 0.00 55 1011.3
20260504002134 36 327 9.6 9.6 0.00 0.00 0.00 53 1011.0
20260504001133 36 329 9.6 9.6 0.00 0.00 0.00 52 1010.8
20260504000133 36 306 7.8 7.8 0.00 0.00 0.00 52 1010.8
20260503235133 37 327 7.8 7.8 0.00 0.00 0.00 50 1010.8
20260503234133 37 333 7.8 7.8 0.00 0.00 0.00 49 1010.8
20260503233133 37 330 6.1 6.1 0.00 0.00 0.00 48 1010.5